Location: Unspecified
(51.6250°N, 0.8230°E)
Time: 06:31:09
(UTC+00:00)

ISS - Pass Details

Date: 02 February 2021
Orbit: 417 x 422 km, 51.6° (Epoch: 02 March)

Event Time Altitude Azimuth Distance (km) Brightness Sun altitude
Rises 18:39:33 0° 284° (WNW) 2,376 1.5 -17.4°
Reaches altitude 10° 18:41:48 10° 273° (W) 1,510 0.3 -17.7°
Maximum altitude 18:44:49 30° 210° (SSW) 777 -2.1 -18.2°
Enters shadow 18:46:27 20° 163° (SSE) 1,043 -1.9 -18.5°
